User: anonymous   Login
Location: Unspecified
(0.0000°N, 0.0000°E)
Time: 21:03:51
(UTC+00:00)
Language:

Tiros 1 despin weight - Orbit

View from above orbital plane
View from above orbital plane
View from above satellite
View from above satellite

Ground track
Ground track

The orbit data is extracted from the following two-line orbital elements,

1   115U 60002D   15246.43483951 +.00000543 +00000-0 +94206-4 0  9997
2   115 048.1672 038.8352 0034950 106.1776 254.2987 14.82285922953350
Epoch (UTC): 03 September 2015 10:26:10
Eccentricity: 0.0034950
inclination: 48.1672°
perigee height: 597 km
apogee height: 646 km
right ascension of ascending node: 38.8352°
argument of perigee: 106.1776°
revolutions per day: 14.82285922
mean anomaly at epoch: 254.2987°
orbit number at epoch: 95335

The dashed part of the orbit path shows where the satellite is in the earth's shadow,  

DLR